Weather in Maya

Russia / Sakha (Yakutia) Republic     61°44′15″N   130°17′22″E
temp.,
°C
wind,
m/s
gust,
m/s
humid.,
%
clouds,
%
prec.,
mm/h
press.,
hPa
HPBL,
m
1 march, mon
mon100:00−25w3896100 0.2 1024582
03:00−26w3896100 0.3 1025684
06:00−27w3895100 0.1 1025674
09:00−27w4894100 0.2 1026729
12:00−25wnw4790100 0.1 1026898
15:00−24wnw4790100 0.3 1025984
18:00−26wnw3797100 0.1 1026624
21:00−26w2797100 0.2 1026525
2 march, tue
tue200:00−27w2698100 0.1 1026370
03:00−29w2698100 0.1 1026280
06:00−31wsw2598100 0.1 1027139
09:00−31w359699 0.1 1026197
12:00−28w249398 0.0 1026412
15:00−27w248999 0.0 1025565
18:00−29w1195100 0.0 102519
21:00−29wnw1196100 0.0 102519
3 march, wed
wed300:00−30wnw1195100 0.0 102419
03:00−31w1196100 0.0 102419
06:00−32wsw1197100 0.0 102319
09:00−31wsw129799 0.0 102292
12:00−28w229099 0.0 1021410
15:00−27wnw2391100 0.1 1020520
18:00−29wnw2298100 0.1 101927
21:00−30wnw2598100 0.1 1020179
4 march, thu
thu400:00−30w2598100 0.1 1019272
03:00−31w3697100 0.2 1019416
06:00−32w3797100 0.1 1019549
09:00−32wnw4793100 0.2 1019720
12:00−30wnw4689100 0.1 1019952
15:00−29wnw4687100 0.1 1020986
18:00−30w3794100 0.1 1021513
21:00−31nw3797100 0.1 1023435
5 march, fri
fri500:00−36wnw2496100 0.0 102481
03:00−38w369672 0.0 1026110
06:00−39w369683 0.0 1027124
09:00−36w489390 0.0 1027405
12:00−31wnw4890100 0.0 1027608
15:00−29wnw4889100 0.0 1027700
18:00−31wnw3993100 0.0 1027345
21:00−33w399599 0.0 1028246